Flag for Congo Dem.Rep. Weather past 2 weeks in Kinshasa, Congo Dem.Rep.

Now
88 °F

Passing clouds.


Feels Like: 93 °F
Forecast: 72 / 91 °F
Wind: 6 mph from Southwest

Location: Brazzaville / Maya-Maya

Current Time: May 29, 2015 at 4:25:55 PM

Latest Report: May 29, 2015 at 3:00 PM


Visibility: 4 mi

Pressure: 29.80 "Hg

Humidity: 55%

Dew point: 70 °F

Location of KinshasaLocation

Historic Weather in Kinshasa — Graph

°F

Kinshasa temperature yesterday

Maximum temperature yesterday: 82 °F (at 4:00 PM)
Minimum temperature yesterday: 73 °F (at 4:00 AM)
Average temperature yesterday: 77 °F

Past Weeks' High & Low Weather Summary

 TemperatureHumidityPressure
High93 °F (May 14, 2:00 PM)100% (May 16, 2:00 AM)30.01 "Hg (May 16, 2:00 AM)
Low72 °F (May 17, 2:00 AM)49% (May 14, 2:00 PM)29.74 "Hg (May 14, 3:00 PM)
Average80 °F81%29.92 "Hg
* Reported May 14 2:00 PM — May 29 2:00 PM, Kinshasa, Weather by CustomWeather, © 2015

Note: Actual official high and low records may vary slightly from our data, if they occured in-between our weather recording intervals... More about our weather records

Advertising

Kinshasa weather history for previous 24 hours

 ConditionsComfort  
Time TempWeatherWind HumidityBarometerVisibility
2:00 PM
Fri, May 29
86 °FScattered clouds.5 mph59%29.83 "Hg4 mi
1:00 PM84 °FScattered clouds.3 mph62%29.86 "Hg4 mi
12:00 PM82 °FPartly sunny.7 mph66%29.89 "Hg4 mi
11:00 AM81 °FPartly sunny.8 mph70%29.92 "Hg4 mi
10:00 AM79 °FPartly sunny.8 mph74%29.95 "Hg4 mi
9:00 AM77 °FScattered clouds.3 mph74%29.95 "Hg4 mi
8:00 AM75 °FScattered clouds.2 mph83%29.95 "Hg4 mi
7:00 AM73 °FScattered clouds.3 mph89%29.95 "Hg4 mi
6:00 AM73 °FPartly sunny.No wind89%29.92 "Hg5 mi
5:00 AM73 °FPassing clouds.5 mph89%29.92 "Hg5 mi
4:00 AM73 °FPassing clouds.5 mph83%29.89 "Hg5 mi
3:00 AM73 °FPassing clouds.7 mph89%29.89 "Hg5 mi
2:00 AM73 °FPassing clouds.5 mph89%29.89 "Hg5 mi
1:00 AM73 °FPassing clouds.5 mph89%29.92 "Hg5 mi
12:00 AM73 °FPassing clouds.6 mph89%29.92 "Hg5 mi
11:00 PM
Thu, May 28
75 °FPassing clouds.7 mph83%29.95 "Hg5 mi
10:00 PM75 °FPassing clouds.10 mph83%29.92 "Hg5 mi
9:00 PM75 °FPassing clouds.9 mph83%29.92 "Hg5 mi
8:00 PM75 °FPassing clouds.12 mph83%29.89 "Hg5 mi
7:00 PM77 °FPassing clouds.7 mph83%29.86 "Hg5 mi
6:00 PM77 °FPassing clouds.6 mph89%29.83 "Hg5 mi
5:00 PM81 °FScattered clouds.8 mph79%29.80 "Hg5 mi
4:00 PM82 °FPartly sunny.8 mph70%29.83 "Hg5 mi
Weather by CustomWeather, © 2015

See weather overviewHow to use our weather pages